Location: Zürich
(47.3769°N, 8.5417°E)
Time: 10:09:42
(UTC+02:00)

ISS - Pass Details

Date: 21 May 2021
Orbit: 417 x 422 km, 51.6° (Epoch: 13 June)

Event Time Altitude Azimuth Distance (km) Brightness Sun altitude
Rises 00:31:24 0° 292° (WNW) 2,368 0.5 -21.5°
Reaches altitude 10° 00:33:33 10° 297° (WNW) 1,504 -0.4 -21.6°
Maximum altitude 00:36:51 52° 15° (NNE) 530 -3.0 -21.7°
Enters shadow 00:37:16 48° 45° (NE) 560 -3.0 -21.7°
